TimeEDT,TemperatureF,Dew PointF,Humidity,Sea Level PressureIn,VisibilityMPH,Wind Direction,Wind SpeedMPH,Gust SpeedMPH,PrecipitationIn,Events,Conditions,WindDirDegrees,DateUTC
12:54 AM,39.0,30.0,70,30.13,10.0,Calm,Calm,-,N/A,,Overcast,0,2013-05-13 04:54:00
1:54 AM,39.9,32.0,73,30.14,10.0,Calm,Calm,-,N/A,,Overcast,0,2013-05-13 05:54:00
2:54 AM,37.0,30.0,76,30.14,10.0,NNE,3.5,-,N/A,,Overcast,30,2013-05-13 06:54:00
3:54 AM,37.0,30.0,76,30.15,10.0,Calm,Calm,-,N/A,,Mostly Cloudy,0,2013-05-13 07:54:00
4:54 AM,34.0,28.9,82,30.15,10.0,Calm,Calm,-,N/A,,Overcast,0,2013-05-13 08:54:00
5:54 AM,33.1,30.0,89,30.15,10.0,NE,3.5,-,N/A,,Clear,40,2013-05-13 09:54:00
6:54 AM,30.0,27.0,88,30.15,10.0,Calm,Calm,-,N/A,,Clear,0,2013-05-13 10:54:00
7:54 AM,39.0,30.9,73,30.17,10.0,Calm,Calm,-,N/A,,Clear,0,2013-05-13 11:54:00
8:54 AM,43.0,30.0,60,30.19,10.0,Calm,Calm,-,N/A,,Clear,0,2013-05-13 12:54:00
9:54 AM,46.9,26.1,44,30.21,10.0,Calm,Calm,-,N/A,,Clear,0,2013-05-13 13:54:00
10:54 AM,50.0,28.0,43,30.20,10.0,Calm,Calm,-,N/A,,Clear,0,2013-05-13 14:54:00
11:54 AM,52.0,27.0,38,30.21,10.0,West,3.5,-,N/A,,Clear,270,2013-05-13 15:54:00
12:54 PM,55.9,25.0,30,30.20,10.0,NNW,12.7,24.2,N/A,,Clear,330,2013-05-13 16:54:00
1:54 PM,57.0,23.0,27,30.19,10.0,NW,10.4,24.2,N/A,,Partly Cloudy,310,2013-05-13 17:54:00
2:54 PM,57.0,23.0,27,30.19,10.0,West,15.0,-,N/A,,Clear,280,2013-05-13 18:54:00
4:54 PM,57.9,23.0,26,30.15,10.0,West,8.1,-,N/A,,Clear,280,2013-05-13 20:54:00
5:54 PM,57.9,25.0,28,30.13,10.0,NW,5.8,-,N/A,,Clear,320,2013-05-13 21:54:00
6:54 PM,60.1,27.0,28,30.12,10.0,Variable,5.8,-,N/A,,Clear,0,2013-05-13 22:54:00
7:54 PM,55.4,28.4,36,30.11,10.0,NNE,3.5,-,N/A,,Clear,20,2013-05-13 23:54:00
8:54 PM,55.0,26.1,33,30.11,10.0,East,3.5,-,N/A,,Clear,80,2013-05-14 00:54:00
9:54 PM,53.1,25.0,34,30.11,10.0,ESE,8.1,-,N/A,,Clear,110,2013-05-14 01:54:00
10:54 PM,52.0,23.0,32,30.10,10.0,ESE,9.2,-,N/A,,Overcast,120,2013-05-14 02:54:00
11:54 PM,52.0,21.9,31,30.09,10.0,SE,9.2,-,N/A,,Mostly Cloudy,140,2013-05-14 03:54:00